Time,TemperatureF,DewpointF,PressureIn,WindDirection,WindDirectionDegrees,WindSpeedMPH,WindSpeedGustMPH,Humidity,HourlyPrecipIn,Conditions,Clouds,dailyrainin,SoftwareType,DateUTC
2013-08-31 00:01:00,78.3,61.3,30.03,NNW,338,0.0,0.0,56,0.00,,---,0.00,VWS V14.01,2013-08-31 07:01:00,
2013-08-31 00:06:00,78.1,61.1,30.03,WSW,248,0.9,0.9,56,0.00,,---,0.00,VWS V14.01,2013-08-31 07:06:00,
2013-08-31 00:11:00,77.9,61.5,30.03,West,270,0.0,0.0,57,0.00,,---,0.00,VWS V14.01,2013-08-31 07:11:00,
2013-08-31 00:16:00,77.9,61.5,30.03,West,270,1.1,1.6,57,0.00,,---,0.00,VWS V14.01,2013-08-31 07:16:00,
2013-08-31 00:21:00,77.7,61.3,30.03,West,270,0.0,0.0,57,0.00,,---,0.00,VWS V14.01,2013-08-31 07:21:00,
2013-08-31 00:26:00,77.7,61.3,30.03,WNW,292,0.9,0.9,57,0.00,,---,0.00,VWS V14.01,2013-08-31 07:26:00,
2013-08-31 00:31:00,77.7,61.3,30.03,WNW,292,0.0,0.0,57,0.00,,---,0.00,VWS V14.01,2013-08-31 07:31:00,
2013-08-31 00:36:00,77.5,61.1,30.03,NW,315,0.0,0.0,57,0.00,,---,0.00,VWS V14.01,2013-08-31 07:36:00,
2013-08-31 00:41:00,77.5,61.1,30.03,NW,315,0.0,0.0,57,0.00,,---,0.00,VWS V14.01,2013-08-31 07:41:00,
2013-08-31 00:47:00,77.4,61.4,30.03,NNW,338,0.0,1.3,58,0.00,,---,0.00,VWS V14.01,2013-08-31 07:47:00,
2013-08-31 00:51:00,77.5,63.0,30.00,NNW,338,0.0,0.0,61,0.00,,---,0.00,VWS V14.01,2013-08-31 07:51:00,
2013-08-31 00:57:00,77.4,62.9,30.00,NW,315,0.9,0.9,61,0.00,,---,0.00,VWS V14.01,2013-08-31 07:57:00,
2013-08-31 01:02:00,77.4,63.8,30.00,NNW,338,0.0,0.0,63,0.00,,---,0.00,VWS V14.01,2013-08-31 08:02:00,
2013-08-31 01:07:00,77.2,64.5,30.00,NNE,22,2.2,2.2,65,0.00,,---,0.00,VWS V14.01,2013-08-31 08:07:00,
2013-08-31 01:12:00,77.0,64.3,30.00,NE,45,3.1,3.1,65,0.00,,---,0.00,VWS V14.01,2013-08-31 08:12:00,
2013-08-31 01:17:00,76.8,64.2,30.00,NE,45,0.0,0.0,65,0.00,,---,0.00,VWS V14.01,2013-08-31 08:17:00,
2013-08-31 01:22:00,76.6,64.4,30.00,North,0,0.0,0.0,66,0.00,,---,0.00,VWS V14.01,2013-08-31 08:22:00,
2013-08-31 01:27:00,76.5,64.3,30.00,NNW,338,0.0,0.0,66,0.00,,---,0.00,VWS V14.01,2013-08-31 08:27:00,
2013-08-31 01:32:00,76.5,64.7,30.00,North,0,2.0,2.0,67,0.00,,---,0.00,VWS V14.01,2013-08-31 08:32:00,
2013-08-31 01:37:00,76.5,65.1,30.00,North,0,2.2,2.2,68,0.00,,---,0.00,VWS V14.01,2013-08-31 08:37:00,
2013-08-31 01:42:00,76.3,64.9,30.00,North,0,0.0,0.0,68,0.00,,---,0.00,VWS V14.01,2013-08-31 08:42:00,
2013-08-31 01:47:00,76.1,64.8,30.00,North,0,0.0,0.0,68,0.00,,---,0.00,VWS V14.01,2013-08-31 08:47:00,
2013-08-31 01:53:00,75.9,64.6,30.00,NNW,338,1.1,1.1,68,0.00,,---,0.00,VWS V14.01,2013-08-31 08:53:00,
2013-08-31 01:58:00,75.9,64.6,30.00,NNW,338,0.0,0.0,68,0.00,,---,0.00,VWS V14.01,2013-08-31 08:58:00,
2013-08-31 02:03:00,75.7,64.4,30.00,North,0,0.0,0.0,68,0.00,,---,0.00,VWS V14.01,2013-08-31 09:03:00,
2013-08-31 02:08:00,75.9,64.6,30.00,North,0,0.0,0.0,68,0.00,,---,0.00,VWS V14.01,2013-08-31 09:08:00,
2013-08-31 02:13:00,75.7,64.0,30.00,NE,45,0.0,0.0,67,0.00,,---,0.00,VWS V14.01,2013-08-31 09:13:00,
2013-08-31 02:18:00,75.6,63.8,30.00,South,180,0.0,0.0,67,0.00,,---,0.00,VWS V14.01,2013-08-31 09:18:00,
2013-08-31 02:23:00,75.2,63.5,30.00,South,180,0.0,0.0,67,0.00,,---,0.00,VWS V14.01,2013-08-31 09:23:00,
2013-08-31 02:28:00,75.2,63.9,30.00,SSW,202,0.0,0.0,68,0.00,,---,0.00,VWS V14.01,2013-08-31 09:28:00,
2013-08-31 02:33:00,75.0,63.8,30.00,SSW,202,0.0,0.0,68,0.00,,---,0.00,VWS V14.01,2013-08-31 09:33:00,
2013-08-31 02:38:00,75.0,63.8,30.00,SSW,202,0.0,0.0,68,0.00,,---,0.00,VWS V14.01,2013-08-31 09:38:00,
2013-08-31 02:43:00,74.8,63.6,30.00,SSW,202,0.0,0.0,68,0.00,,---,0.00,VWS V14.01,2013-08-31 09:43:00,
2013-08-31 02:48:00,74.7,63.4,30.00,SSW,202,0.0,0.0,68,0.00,,---,0.00,VWS V14.01,2013-08-31 09:48:00,
2013-08-31 02:54:00,74.7,63.8,29.97,SSW,202,0.0,0.0,69,0.00,,---,0.00,VWS V14.01,2013-08-31 09:54:00,
2013-08-31 02:59:00,74.5,63.7,29.97,SSW,202,0.0,0.0,69,0.00,,---,0.00,VWS V14.01,2013-08-31 09:59:00,
2013-08-31 03:04:00,74.7,64.2,29.97,West,270,0.9,3.1,70,0.00,,---,0.00,VWS V14.01,2013-08-31 10:04:00,
2013-08-31 03:09:00,74.7,64.2,30.00,West,270,0.0,0.0,70,0.00,,---,0.00,VWS V14.01,2013-08-31 10:09:00,
2013-08-31 03:14:00,74.8,64.4,30.00,West,270,0.0,0.0,70,0.00,,---,0.00,VWS V14.01,2013-08-31 10:14:00,
2013-08-31 03:19:00,74.8,64.4,30.00,West,270,0.0,0.0,70,0.00,,---,0.00,VWS V14.01,2013-08-31 10:19:00,
2013-08-31 03:24:00,74.8,64.4,30.00,WNW,292,0.0,0.0,70,0.00,,---,0.00,VWS V14.01,2013-08-31 10:24:00,
2013-08-31 03:29:00,74.8,64.4,30.00,WNW,292,0.0,0.0,70,0.00,,---,0.00,VWS V14.01,2013-08-31 10:29:00,
2013-08-31 03:34:00,74.8,64.4,30.00,WNW,292,0.0,0.0,70,0.00,,---,0.00,VWS V14.01,2013-08-31 10:34:00,
2013-08-31 03:39:00,74.8,64.4,30.00,WNW,292,0.0,0.0,70,0.00,,---,0.00,VWS V14.01,2013-08-31 10:39:00,
2013-08-31 03:44:00,74.7,64.2,30.00,WNW,292,0.0,0.0,70,0.00,,---,0.00,VWS V14.01,2013-08-31 10:44:00,
2013-08-31 03:49:00,74.7,64.2,30.00,ESE,112,1.3,1.3,70,0.00,,---,0.00,VWS V14.01,2013-08-31 10:49:00,
2013-08-31 03:54:00,74.7,64.6,30.00,East,90,0.0,0.0,71,0.00,,---,0.00,VWS V14.01,2013-08-31 10:54:00,
2013-08-31 03:59:00,74.7,64.6,30.00,East,90,0.0,0.0,71,0.00,,---,0.00,VWS V14.01,2013-08-31 10:59:00,
2013-08-31 04:04:00,74.7,65.0,30.00,NE,45,0.0,0.0,72,0.00,,---,0.00,VWS V14.01,2013-08-31 11:04:00,
2013-08-31 04:09:00,74.7,65.0,30.00,ENE,68,0.0,0.0,72,0.00,,---,0.00,VWS V14.01,2013-08-31 11:09:00,
2013-08-31 04:14:00,74.5,64.9,30.00,NE,45,0.0,0.0,72,0.00,,---,0.00,VWS V14.01,2013-08-31 11:14:00,
2013-08-31 04:20:00,74.5,64.9,30.00,ENE,68,0.0,0.0,72,0.00,,---,0.00,VWS V14.01,2013-08-31 11:20:00,
2013-08-31 04:25:00,74.5,64.9,30.00,East,90,2.5,2.5,72,0.00,,---,0.00,VWS V14.01,2013-08-31 11:25:00,
2013-08-31 04:30:00,74.5,65.3,30.00,NNW,338,0.0,0.0,73,0.00,,---,0.00,VWS V14.01,2013-08-31 11:30:00,
2013-08-31 04:35:00,74.3,64.7,30.00,NW,315,0.0,0.0,72,0.00,,---,0.00,VWS V14.01,2013-08-31 11:35:00,
2013-08-31 04:40:00,74.5,64.9,30.00,NNE,22,1.6,1.6,72,0.00,,---,0.00,VWS V14.01,2013-08-31 11:40:00,
2013-08-31 04:45:00,74.7,64.6,30.00,NW,315,1.1,1.1,71,0.00,,---,0.00,VWS V14.01,2013-08-31 11:45:00,
2013-08-31 04:50:00,74.7,64.6,30.00,NNW,338,0.0,0.0,71,0.00,,---,0.00,VWS V14.01,2013-08-31 11:50:00,
2013-08-31 04:55:00,74.7,64.2,30.00,North,0,0.0,0.0,70,0.00,,---,0.00,VWS V14.01,2013-08-31 11:55:00,
2013-08-31 05:00:00,74.7,64.2,30.00,NNW,338,0.0,0.0,70,0.00,,---,0.00,VWS V14.01,2013-08-31 12:00:00,
2013-08-31 05:05:00,74.7,64.2,30.00,NNW,338,0.0,0.0,70,0.00,,---,0.00,VWS V14.01,2013-08-31 12:05:00,
2013-08-31 05:10:00,74.7,64.2,30.00,NNW,338,2.5,2.5,70,0.00,,---,0.00,VWS V14.01,2013-08-31 12:10:00,
2013-08-31 05:15:00,74.7,63.8,30.00,North,0,0.0,0.0,69,0.00,,---,0.00,VWS V14.01,2013-08-31 12:15:00,
2013-08-31 05:20:00,74.5,63.7,30.00,North,0,0.0,0.0,69,0.00,,---,0.00,VWS V14.01,2013-08-31 12:20:00,
2013-08-31 05:25:00,74.5,63.2,30.00,North,0,2.0,2.0,68,0.00,,---,0.00,VWS V14.01,2013-08-31 12:25:00,
2013-08-31 05:30:00,74.5,63.2,30.00,NNW,338,0.0,0.0,68,0.00,,---,0.00,VWS V14.01,2013-08-31 12:30:00,
2013-08-31 05:35:00,74.5,63.2,30.00,NNW,338,0.0,0.0,68,0.00,,---,0.00,VWS V14.01,2013-08-31 12:35:00,
2013-08-31 05:40:00,74.5,63.2,30.00,North,0,0.0,0.0,68,0.00,,---,0.00,VWS V14.01,2013-08-31 12:40:00,
2013-08-31 05:45:00,74.5,63.2,30.00,NNW,338,0.0,0.0,68,0.00,,---,0.00,VWS V14.01,2013-08-31 12:45:00,
2013-08-31 05:50:00,74.5,62.8,30.00,NNW,338,0.0,0.0,67,0.00,,---,0.00,VWS V14.01,2013-08-31 12:50:00,
2013-08-31 05:55:00,74.5,62.8,30.00,NNE,22,1.6,1.6,67,0.00,,---,0.00,VWS V14.01,2013-08-31 12:55:00,
2013-08-31 06:00:00,74.5,62.8,30.00,North,0,0.0,0.0,67,0.00,,---,0.00,VWS V14.01,2013-08-31 13:00:00,
2013-08-31 06:05:00,74.5,62.8,30.00,North,0,2.0,2.9,67,0.00,,---,0.00,VWS V14.01,2013-08-31 13:05:00,
2013-08-31 06:10:00,74.5,62.8,30.00,North,0,2.7,2.7,67,0.00,,---,0.00,VWS V14.01,2013-08-31 13:10:00,
2013-08-31 06:15:00,74.5,62.4,30.00,North,0,2.7,2.7,66,0.00,,---,0.00,VWS V14.01,2013-08-31 13:15:00,
2013-08-31 06:20:00,74.7,62.6,30.00,North,0,2.9,2.9,66,0.00,,---,0.00,VWS V14.01,2013-08-31 13:20:00,
2013-08-31 06:26:00,75.0,62.5,30.00,NNW,338,1.6,2.7,65,0.00,,---,0.00,VWS V14.01,2013-08-31 13:26:00,
2013-08-31 06:31:00,75.2,62.2,30.00,NNE,22,2.0,2.0,64,0.00,,---,0.00,VWS V14.01,2013-08-31 13:31:00,
2013-08-31 06:36:00,75.6,63.4,30.00,NNW,338,0.0,0.0,66,0.00,,---,0.00,VWS V14.01,2013-08-31 13:36:00,
2013-08-31 06:41:00,75.7,64.0,30.03,South,180,0.0,0.0,67,0.00,,---,0.00,VWS V14.01,2013-08-31 13:41:00,
2013-08-31 06:46:00,75.9,64.2,30.03,South,180,0.0,0.0,67,0.00,,---,0.00,VWS V14.01,2013-08-31 13:46:00,
2013-08-31 06:51:00,76.1,64.4,30.03,South,180,0.0,0.0,67,0.00,,---,0.00,VWS V14.01,2013-08-31 13:51:00,
2013-08-31 06:56:00,76.5,64.7,30.03,SW,225,2.2,2.2,67,0.00,,---,0.00,VWS V14.01,2013-08-31 13:56:00,
2013-08-31 07:01:00,76.8,65.0,30.03,South,180,2.7,2.7,67,0.00,,---,0.00,VWS V14.01,2013-08-31 14:01:00,
2013-08-31 07:06:00,77.2,65.4,30.03,SSW,202,1.3,1.3,67,0.00,,---,0.00,VWS V14.01,2013-08-31 14:06:00,
2013-08-31 07:11:00,77.4,65.6,30.03,SSW,202,1.3,1.3,67,0.00,,---,0.00,VWS V14.01,2013-08-31 14:11:00,
2013-08-31 07:16:00,77.5,65.7,30.03,SSW,202,0.0,0.0,67,0.00,,---,0.00,VWS V14.01,2013-08-31 14:16:00,
2013-08-31 07:21:00,77.7,65.9,30.03,South,180,1.1,1.1,67,0.00,,---,0.00,VWS V14.01,2013-08-31 14:21:00,
2013-08-31 07:26:00,77.7,65.9,30.03,SW,225,0.0,0.0,67,0.00,,---,0.00,VWS V14.01,2013-08-31 14:26:00,
2013-08-31 07:31:00,78.1,66.2,30.03,West,270,1.6,1.6,67,0.00,,---,0.00,VWS V14.01,2013-08-31 14:31:00,
2013-08-31 07:36:00,78.3,66.0,30.03,SSE,158,2.0,2.0,66,0.00,,---,0.00,VWS V14.01,2013-08-31 14:36:00,
2013-08-31 07:41:00,78.4,66.2,30.03,WSW,248,0.0,0.0,66,0.00,,---,0.00,VWS V14.01,2013-08-31 14:41:00,
2013-08-31 07:46:00,79.0,66.2,30.03,WSW,248,0.0,0.0,65,0.00,,---,0.00,VWS V14.01,2013-08-31 14:46:00,
2013-08-31 07:51:00,81.7,68.3,30.03,West,270,0.0,0.0,64,0.00,,---,0.00,VWS V14.01,2013-08-31 14:51:00,
2013-08-31 07:56:00,85.1,70.6,30.03,West,270,0.0,0.0,62,0.00,,---,0.00,VWS V14.01,2013-08-31 14:56:00,
2013-08-31 08:01:00,82.8,67.9,30.03,SW,225,0.0,0.0,61,0.00,,---,0.00,VWS V14.01,2013-08-31 15:01:00,
2013-08-31 08:06:00,82.2,67.4,30.03,WSW,248,0.0,0.0,61,0.00,,---,0.00,VWS V14.01,2013-08-31 15:06:00,
2013-08-31 08:11:00,83.3,68.5,30.03,West,270,2.7,2.7,61,0.00,,---,0.00,VWS V14.01,2013-08-31 15:11:00,
2013-08-31 08:16:00,84.2,68.8,30.03,West,270,0.0,0.0,60,0.00,,---,0.00,VWS V14.01,2013-08-31 15:16:00,
2013-08-31 08:21:00,84.0,68.7,30.03,West,270,0.0,1.3,60,0.00,,---,0.00,VWS V14.01,2013-08-31 15:21:00,
2013-08-31 08:26:00,84.6,69.2,30.03,SW,225,0.0,0.0,60,0.00,,---,0.00,VWS V14.01,2013-08-31 15:26:00,
2013-08-31 08:31:00,85.3,69.8,30.03,West,270,0.0,0.0,60,0.00,,---,0.00,VWS V14.01,2013-08-31 15:31:00,
2013-08-31 08:36:00,86.2,69.7,30.03,West,270,0.0,0.0,58,0.00,,---,0.00,VWS V14.01,2013-08-31 15:36:00,
2013-08-31 08:42:00,86.2,69.2,30.03,West,270,0.0,0.0,57,0.00,,---,0.00,VWS V14.01,2013-08-31 15:42:00,
2013-08-31 08:47:00,86.7,69.2,30.03,West,270,0.0,0.0,56,0.00,,---,0.00,VWS V14.01,2013-08-31 15:47:00,
2013-08-31 08:52:00,87.1,69.0,30.03,West,270,0.0,0.0,55,0.00,,---,0.00,VWS V14.01,2013-08-31 15:52:00,
2013-08-31 08:57:00,87.3,68.1,30.03,West,270,0.0,0.0,53,0.00,,---,0.00,VWS V14.01,2013-08-31 15:57:00,
2013-08-31 09:02:00,87.4,67.7,30.03,West,270,0.0,0.0,52,0.00,,---,0.00,VWS V14.01,2013-08-31 16:02:00,
2013-08-31 09:07:00,87.1,66.2,30.03,West,270,0.0,0.0,50,0.00,,---,0.00,VWS V14.01,2013-08-31 16:07:00,
2013-08-31 09:12:00,86.9,67.2,30.03,West,270,0.0,0.0,52,0.00,,---,0.00,VWS V14.01,2013-08-31 16:12:00,
2013-08-31 09:17:00,86.5,66.3,30.03,West,270,0.0,0.0,51,0.00,,---,0.00,VWS V14.01,2013-08-31 16:17:00,
2013-08-31 09:22:00,86.2,65.9,30.03,SSE,158,1.6,1.6,51,0.00,,---,0.00,VWS V14.01,2013-08-31 16:22:00,
2013-08-31 09:27:00,85.8,65.6,30.03,SSE,158,1.6,1.6,51,0.00,,---,0.00,VWS V14.01,2013-08-31 16:27:00,
2013-08-31 09:32:00,85.5,65.3,30.03,SSE,158,1.6,1.6,51,0.00,,---,0.00,VWS V14.01,2013-08-31 16:32:00,
2013-08-31 09:37:00,85.5,65.8,30.03,SSE,158,1.6,1.6,52,0.00,,---,0.00,VWS V14.01,2013-08-31 16:37:00,
2013-08-31 09:42:00,85.6,66.0,30.03,ESE,112,0.9,0.9,52,0.00,,---,0.00,VWS V14.01,2013-08-31 16:42:00,
2013-08-31 09:47:00,85.6,65.4,30.03,SW,225,2.0,2.0,51,0.00,,---,0.00,VWS V14.01,2013-08-31 16:47:00,
2013-08-31 09:52:00,86.2,65.9,30.03,SSW,202,0.0,0.0,51,0.00,,---,0.00,VWS V14.01,2013-08-31 16:52:00,
2013-08-31 09:57:00,87.1,66.2,30.03,SSW,202,0.0,0.0,50,0.00,,---,0.00,VWS V14.01,2013-08-31 16:57:00,
2013-08-31 10:02:00,87.4,65.4,30.03,West,270,0.9,0.9,48,0.00,,---,0.00,VWS V14.01,2013-08-31 17:02:00,
2013-08-31 10:08:00,88.3,66.2,30.03,West,270,0.9,0.9,48,0.00,,---,0.00,VWS V14.01,2013-08-31 17:08:00,
2013-08-31 10:13:00,89.1,63.7,30.03,West,270,0.9,0.9,43,0.00,,---,0.00,VWS V14.01,2013-08-31 17:13:00,
2013-08-31 10:18:00,89.6,65.5,30.03,West,270,0.9,0.9,45,0.00,,---,0.00,VWS V14.01,2013-08-31 17:18:00,
2013-08-31 10:23:00,89.4,64.7,30.03,West,270,0.9,0.9,44,0.00,,---,0.00,VWS V14.01,2013-08-31 17:23:00,
2013-08-31 10:28:00,89.6,62.1,30.03,West,270,0.0,0.9,40,0.00,,---,0.00,VWS V14.01,2013-08-31 17:28:00,
2013-08-31 10:33:00,90.0,64.5,30.03,WSW,248,2.7,2.7,43,0.00,,---,0.00,VWS V14.01,2013-08-31 17:33:00,
2013-08-31 10:38:00,90.1,64.0,30.00,WSW,248,1.6,1.6,42,0.00,,---,0.00,VWS V14.01,2013-08-31 17:38:00,
2013-08-31 10:43:00,90.5,64.3,30.00,WSW,248,2.0,2.0,42,0.00,,---,0.00,VWS V14.01,2013-08-31 17:43:00,
2013-08-31 10:48:00,90.7,64.5,30.00,WSW,248,2.0,2.0,42,0.00,,---,0.00,VWS V14.01,2013-08-31 17:48:00,
2013-08-31 10:53:00,90.9,63.9,30.00,West,270,0.0,0.9,41,0.00,,---,0.00,VWS V14.01,2013-08-31 17:53:00,
2013-08-31 10:58:00,90.9,63.2,30.00,West,270,0.0,0.0,40,0.00,,---,0.00,VWS V14.01,2013-08-31 17:58:00,
2013-08-31 11:04:00,91.2,64.9,30.00,SSW,202,1.6,1.6,42,0.00,,---,0.00,VWS V14.01,2013-08-31 18:04:00,
2013-08-31 11:09:00,91.2,64.2,30.00,West,270,0.0,1.3,41,0.00,,---,0.00,VWS V14.01,2013-08-31 18:09:00,
2013-08-31 11:14:00,91.2,63.5,30.00,West,270,3.1,3.1,40,0.00,,---,0.00,VWS V14.01,2013-08-31 18:14:00,
2013-08-31 11:19:00,91.2,63.5,30.00,WSW,248,2.9,2.9,40,0.00,,---,0.00,VWS V14.01,2013-08-31 18:19:00,
2013-08-31 11:24:00,91.0,63.4,30.00,WSW,248,6.5,6.5,40,0.00,,---,0.00,VWS V14.01,2013-08-31 18:24:00,
2013-08-31 11:29:00,91.2,63.5,30.00,WSW,248,6.5,6.5,40,0.00,,---,0.00,VWS V14.01,2013-08-31 18:29:00,
2013-08-31 11:34:00,91.2,63.5,30.00,WNW,292,2.5,2.5,40,0.00,,---,0.00,VWS V14.01,2013-08-31 18:34:00,
2013-08-31 11:39:00,91.0,63.4,30.00,WNW,292,3.8,3.8,40,0.00,,---,0.00,VWS V14.01,2013-08-31 18:39:00,
2013-08-31 11:44:00,91.2,63.5,30.00,WNW,292,3.8,3.8,40,0.00,,---,0.00,VWS V14.01,2013-08-31 18:44:00,
2013-08-31 11:49:00,91.0,61.9,30.00,WNW,292,3.8,3.8,38,0.00,,---,0.00,VWS V14.01,2013-08-31 18:49:00,
2013-08-31 11:54:00,91.0,63.4,30.00,East,90,4.7,4.7,40,0.00,,---,0.00,VWS V14.01,2013-08-31 18:54:00,
2013-08-31 11:59:00,91.4,63.7,30.00,East,90,4.7,4.7,40,0.00,,---,0.00,VWS V14.01,2013-08-31 18:59:00,
2013-08-31 12:04:00,91.4,63.7,30.00,East,90,4.7,4.7,40,0.00,,---,0.00,VWS V14.01,2013-08-31 19:04:00,
2013-08-31 12:09:00,91.8,64.0,30.00,East,90,4.7,4.7,40,0.00,,---,0.00,VWS V14.01,2013-08-31 19:09:00,
2013-08-31 12:14:00,91.9,64.2,30.00,West,270,2.7,2.7,40,0.00,,---,0.00,VWS V14.01,2013-08-31 19:14:00,
2013-08-31 12:20:00,92.1,64.3,30.00,West,270,2.7,2.7,40,0.00,,---,0.00,VWS V14.01,2013-08-31 19:20:00,
2013-08-31 12:25:00,92.3,63.8,29.97,West,270,2.7,2.7,39,0.00,,---,0.00,VWS V14.01,2013-08-31 19:25:00,
2013-08-31 12:30:00,92.7,64.1,29.97,North,0,4.0,4.0,39,0.00,,---,0.00,VWS V14.01,2013-08-31 19:30:00,
2013-08-31 12:35:00,92.8,62.8,29.97,SE,135,2.9,2.9,37,0.00,,---,0.00,VWS V14.01,2013-08-31 19:35:00,
2013-08-31 12:40:00,92.8,63.5,29.97,SE,135,2.9,2.9,38,0.00,,---,0.00,VWS V14.01,2013-08-31 19:40:00,
2013-08-31 12:45:00,93.0,63.7,29.97,South,180,2.5,2.5,38,0.00,,---,0.00,VWS V14.01,2013-08-31 19:45:00,
2013-08-31 12:50:00,93.4,63.2,29.97,West,270,6.5,6.5,37,0.00,,---,0.00,VWS V14.01,2013-08-31 19:50:00,
2013-08-31 12:55:00,93.6,62.6,29.97,West,270,6.5,6.5,36,0.00,,---,0.00,VWS V14.01,2013-08-31 19:55:00,
2013-08-31 13:00:00,93.6,62.6,29.97,West,270,2.7,2.7,36,0.00,,---,0.00,VWS V14.01,2013-08-31 20:00:00,
2013-08-31 13:05:00,93.7,62.8,29.97,WSW,248,3.1,3.1,36,0.00,,---,0.00,VWS V14.01,2013-08-31 20:05:00,
2013-08-31 13:11:00,93.7,62.0,29.97,NW,315,4.3,4.3,35,0.00,,---,0.00,VWS V14.01,2013-08-31 20:11:00,
2013-08-31 13:16:00,93.9,61.3,29.97,NNW,338,3.1,3.1,34,0.00,,---,0.00,VWS V14.01,2013-08-31 20:16:00,
2013-08-31 13:21:00,94.1,60.6,29.97,WSW,248,3.6,3.6,33,0.00,,---,0.00,VWS V14.01,2013-08-31 20:21:00,
2013-08-31 13:26:00,94.5,61.8,29.94,WSW,248,3.6,3.6,34,0.00,,---,0.00,VWS V14.01,2013-08-31 20:26:00,
2013-08-31 13:31:00,94.5,60.1,29.94,WSW,248,3.6,3.6,32,0.00,,---,0.00,VWS V14.01,2013-08-31 20:31:00,
2013-08-31 13:36:00,94.3,59.9,29.94,WSW,248,3.6,3.6,32,0.00,,---,0.00,VWS V14.01,2013-08-31 20:36:00,
2013-08-31 13:41:00,94.3,59.9,29.94,WSW,248,3.6,3.6,32,0.00,,---,0.00,VWS V14.01,2013-08-31 20:41:00,
2013-08-31 13:46:00,94.6,60.2,29.94,WSW,248,3.6,3.6,32,0.00,,---,0.00,VWS V14.01,2013-08-31 20:46:00,
2013-08-31 13:51:00,94.6,60.2,29.94,WSW,248,3.6,3.6,32,0.00,,---,0.00,VWS V14.01,2013-08-31 20:51:00,
2013-08-31 13:56:00,95.0,59.7,29.94,WNW,292,3.1,3.1,31,0.00,,---,0.00,VWS V14.01,2013-08-31 20:56:00,
2013-08-31 14:01:00,95.4,60.0,29.94,WNW,292,3.1,3.1,31,0.00,,---,0.00,VWS V14.01,2013-08-31 21:01:00,
2013-08-31 14:06:00,95.4,59.0,29.94,NNW,338,8.7,8.7,30,0.00,,---,0.00,VWS V14.01,2013-08-31 21:06:00,
2013-08-31 14:11:00,95.4,60.0,29.94,NNW,338,8.7,8.7,31,0.00,,---,0.00,VWS V14.01,2013-08-31 21:11:00,
2013-08-31 14:16:00,95.2,58.9,29.94,NNW,338,8.7,8.7,30,0.00,,---,0.00,VWS V14.01,2013-08-31 21:16:00,
2013-08-31 14:21:00,95.0,59.7,29.94,West,270,4.7,9.0,31,0.00,,---,0.00,VWS V14.01,2013-08-31 21:21:00,
2013-08-31 14:26:00,95.0,58.7,29.94,SW,225,3.6,3.6,30,0.00,,---,0.00,VWS V14.01,2013-08-31 21:26:00,
2013-08-31 14:31:00,95.0,58.7,29.94,WSW,248,2.9,2.9,30,0.00,,---,0.00,VWS V14.01,2013-08-31 21:31:00,
2013-08-31 14:36:00,95.0,58.7,29.94,SSW,202,3.1,3.1,30,0.00,,---,0.00,VWS V14.01,2013-08-31 21:36:00,
2013-08-31 14:42:00,95.0,58.7,29.94,West,270,4.0,4.0,30,0.00,,---,0.00,VWS V14.01,2013-08-31 21:42:00,
2013-08-31 14:47:00,95.4,60.0,29.94,NW,315,1.3,1.3,31,0.00,,---,0.00,VWS V14.01,2013-08-31 21:47:00,
2013-08-31 14:52:00,95.5,59.2,29.94,West,270,3.8,3.8,30,0.00,,---,0.00,VWS V14.01,2013-08-31 21:52:00,
2013-08-31 14:57:00,95.0,57.8,29.94,NNW,338,2.7,2.7,29,0.00,,---,0.00,VWS V14.01,2013-08-31 21:57:00,
2013-08-31 15:02:00,95.2,59.8,29.94,NE,45,3.8,3.8,31,0.00,,---,0.00,VWS V14.01,2013-08-31 22:02:00,
2013-08-31 15:07:00,95.2,59.8,29.91,WNW,292,8.7,8.7,31,0.00,,---,0.00,VWS V14.01,2013-08-31 22:07:00,
2013-08-31 15:12:00,94.8,59.5,29.91,NNW,338,4.7,4.7,31,0.00,,---,0.00,VWS V14.01,2013-08-31 22:12:00,
2013-08-31 15:17:00,94.5,57.3,29.91,NW,315,3.6,3.6,29,0.00,,---,0.00,VWS V14.01,2013-08-31 22:17:00,
2013-08-31 15:23:00,94.8,59.5,29.91,West,270,2.5,2.5,31,0.00,,---,0.00,VWS V14.01,2013-08-31 22:23:00,
2013-08-31 15:28:00,95.2,58.9,29.91,South,180,2.7,2.7,30,0.00,,---,0.00,VWS V14.01,2013-08-31 22:28:00,
2013-08-31 15:33:00,95.2,57.9,29.91,North,0,5.4,5.4,29,0.00,,---,0.00,VWS V14.01,2013-08-31 22:33:00,
2013-08-31 15:38:00,94.6,57.5,29.91,WSW,248,2.9,2.9,29,0.00,,---,0.00,VWS V14.01,2013-08-31 22:38:00,
2013-08-31 15:43:00,94.8,57.6,29.91,WSW,248,3.4,3.4,29,0.00,,---,0.00,VWS V14.01,2013-08-31 22:43:00,
2013-08-31 15:48:00,95.0,57.8,29.91,West,270,5.8,5.8,29,0.00,,---,0.00,VWS V14.01,2013-08-31 22:48:00,
2013-08-31 15:53:00,95.0,57.8,29.91,WNW,292,5.4,5.4,29,0.00,,---,0.00,VWS V14.01,2013-08-31 22:53:00,
2013-08-31 15:58:00,94.8,57.6,29.91,North,0,4.3,4.3,29,0.00,,---,0.00,VWS V14.01,2013-08-31 22:58:00,
2013-08-31 16:03:00,95.0,56.8,29.91,NW,315,3.1,3.4,28,0.00,,---,0.00,VWS V14.01,2013-08-31 23:03:00,
2013-08-31 16:08:00,95.4,57.1,29.91,West,270,7.2,7.2,28,0.00,,---,0.00,VWS V14.01,2013-08-31 23:08:00,
2013-08-31 16:13:00,95.4,57.1,29.91,NNW,338,5.6,7.6,28,0.00,,---,0.00,VWS V14.01,2013-08-31 23:13:00,
2013-08-31 16:18:00,94.6,56.5,29.91,WNW,292,4.3,4.3,28,0.00,,---,0.00,VWS V14.01,2013-08-31 23:18:00,
2013-08-31 16:23:00,94.8,56.7,29.91,NNE,22,5.4,5.4,28,0.00,,---,0.00,VWS V14.01,2013-08-31 23:23:00,
2013-08-31 16:29:00,95.2,57.0,29.91,WNW,292,6.0,6.0,28,0.00,,---,0.00,VWS V14.01,2013-08-31 23:29:00,
2013-08-31 16:34:00,95.4,56.1,29.91,WSW,248,3.4,3.4,27,0.00,,---,0.00,VWS V14.01,2013-08-31 23:34:00,
2013-08-31 16:39:00,95.5,56.3,29.91,SSW,202,6.9,6.9,27,0.00,,---,0.00,VWS V14.01,2013-08-31 23:39:00,
2013-08-31 16:44:00,95.2,56.0,29.91,SSW,202,6.9,6.9,27,0.00,,---,0.00,VWS V14.01,2013-08-31 23:44:00,
2013-08-31 16:49:00,95.5,56.3,29.91,West,270,4.0,8.5,27,0.00,,---,0.00,VWS V14.01,2013-08-31 23:49:00,
2013-08-31 16:54:00,94.1,55.0,29.91,NE,45,5.8,6.0,27,0.00,,---,0.00,VWS V14.01,2013-08-31 23:54:00,
2013-08-31 16:59:00,93.4,54.4,29.91,NNW,338,5.6,5.6,27,0.00,,---,0.00,VWS V14.01,2013-08-31 23:59:00,
2013-08-31 17:04:00,92.7,54.8,29.91,East,90,4.7,4.7,28,0.00,,---,0.00,VWS V14.01,2013-09-01 00:04:00,
2013-08-31 17:09:00,92.1,54.4,29.91,North,0,3.4,3.4,28,0.00,,---,0.00,VWS V14.01,2013-09-01 00:09:00,
2013-08-31 17:15:00,91.8,54.0,29.91,North,0,2.9,2.9,28,0.00,,---,0.00,VWS V14.01,2013-09-01 00:15:00,
2013-08-31 17:20:00,91.4,53.8,29.91,NW,315,2.0,3.1,28,0.00,,---,0.00,VWS V14.01,2013-09-01 00:20:00,
2013-08-31 17:25:00,91.2,54.5,29.91,NNE,22,3.4,3.4,29,0.00,,---,0.00,VWS V14.01,2013-09-01 00:25:00,
2013-08-31 17:30:00,91.0,56.2,29.91,North,0,5.8,5.8,31,0.00,,---,0.00,VWS V14.01,2013-09-01 00:30:00,
2013-08-31 17:35:00,90.7,55.0,29.91,North,0,4.3,4.3,30,0.00,,---,0.00,VWS V14.01,2013-09-01 00:35:00,
2013-08-31 17:40:00,90.5,54.9,29.91,NW,315,1.6,1.6,30,0.00,,---,0.00,VWS V14.01,2013-09-01 00:40:00,
2013-08-31 17:45:00,90.3,53.8,29.91,North,0,2.9,2.9,29,0.00,,---,0.00,VWS V14.01,2013-09-01 00:45:00,
2013-08-31 17:50:00,90.3,53.8,29.91,NNW,338,2.7,2.7,29,0.00,,---,0.00,VWS V14.01,2013-09-01 00:50:00,
2013-08-31 17:55:00,90.1,53.6,29.91,NNE,22,1.1,1.1,29,0.00,,---,0.00,VWS V14.01,2013-09-01 00:55:00,
2013-08-31 18:00:00,90.1,53.6,29.91,NNW,338,4.3,4.3,29,0.00,,---,0.00,VWS V14.01,2013-09-01 01:00:00,
2013-08-31 18:05:00,90.0,53.5,29.91,SSE,158,2.2,2.2,29,0.00,,---,0.00,VWS V14.01,2013-09-01 01:05:00,
2013-08-31 18:10:00,90.0,53.5,29.91,North,0,3.1,3.1,29,0.00,,---,0.00,VWS V14.01,2013-09-01 01:10:00,